Find Starlink 36545

NORAD ID: 67505 Int'l Des: 2026-012 Owner: SPXS Country: US Constellation: starlink operational
LEOCIRCULAR

Current View

Loading 3D Globe...

About Starlink 36545

Description loading...

Upcoming Passes

Passes for default location (London). Set your location on the main map for personalized predictions.

Altitude History

Loading altitude history...

Two-Line Element Set

1 67505U 26012N 26146.29176108 .00014730 00000-0 54350-3 0 9992
2 67505 42.9997 235.8367 0001378 275.6181 84.4513 15.27594041 19630
Epoch: May 26, 2026 • Age: 16 hours

Current Status

Altitude 484.3 km
Velocity 7.63 km/s
Sub-Earth Point 31.15°N, 44.09°E
Launch Date Jan 18, 2026
Age 0.3 years
Type internet

Technical Details

Classification Payload
Mass 575.00 kg
Dry Mass 530.00 kg
Total Mass 575.00 kg
Length 0.30 m
Diameter 4.10 m
Span 29.00 m
Shape Box + pan
Manufacturer SPXS
Bus Type Starlink V2MO
Phase Status In Orbit
Owner/State SPXS/US

Most Searched